[[{"header":{"parameterUnit":"m.s-1","parameterCategory":1,"la1":30.2991,"la2":30.254,"lo1":-89.0895,"lo2":-89.0444,"dy":0.0017,"dx":0.0017,"nx":28,"ny":28,"refTime":"2025-04-04T09:00:00:Z","depth":0,"parameterNumber":2,"parameterNumberName":"U-component_of_WINDS"},"data":[0,0,0,0,0,0,0,0,0,0,0,0,0,0,0,0,0,0,0,0,0,0,0,0,0,0,0,0,0,0,0,0,0,0,0,0,0,0,0,0,0,0,0,0,0,0,0,0,0,0,0,0,0,0,0,0,0,0,-5.5687,-5.5688,0,-5.5801,-5.5802,-5.5803,-5.5807,-5.5806,-5.5804,-5.5803,-5.5917,-5.5921,-5.5925,0,0,0,0,0,0,0,0,0,0,0,0,0,-5.5472,-5.5476,-5.5687,-5.5688,-5.569,-5.58,-5.5802,-5.5803,-5.5807,-5.5806,-5.5804,-5.5803,-5.5915,-5.592,-5.5925,0,0,0,0,0,0,0,0,0,0,0,0,0,-5.5574,-5.5478,-5.5687,-5.5705,-5.5708,-5.58,-5.5802,-5.5804,-5.5808,-5.5806,-5.5804,-5.5802,-5.5914,-5.592,-5.5926,-5.6007,0,0,-5.5946,-5.5949,0,0,0,0,0,0,0,0,-5.5568,-5.5581,-5.5701,-5.5704,-5.5707,-5.5788,-5.5768,-5.5872,-5.5808,-5.577,-5.5803,-5.5801,-5.5875,-5.5885,-5.591,-5.6012,-5.6017,-5.5946,-5.595,-5.5953,-5.5955,0,0,0,0,0,0,0,-5.5561,-5.5577,-5.5732,-5.5703,-5.5707,-5.5707,-5.572,-5.5788,-5.5832,-5.5773,-5.5774,-5.5787,-5.5877,-5.5904,-5.5913,-5.6018,-5.5946,-5.5952,-5.5956,-5.5958,-5.6192,-5.6195,0,0,0,0,0,0,-5.555,-5.5571,-5.5728,-5.5735,-5.5631,-5.5713,-5.5726,-5.5764,-5.5832,-5.584,-5.5789,-5.5787,-5.5894,-5.5906,-5.5917,-5.6015,-5.5953,-5.5959,-5.5963,-5.619,-5.6193,-5.6195,0,0,0,0,0,0,-5.5546,-5.5564,-5.5724,-5.5653,-5.5674,-5.5719,-5.5761,-5.5767,-5.5795,-5.5844,-5.5851,-5.5809,-5.5893,-5.5908,-5.5985,-5.6019,-5.5962,-5.5968,-5.6187,-5.6191,-5.6194,-5.6212,0,0,0,0,0,0,-5.554,-5.5563,-5.5594,-5.5654,-5.5677,-5.5789,-5.5763,-5.5771,-5.5806,-5.5805,-5.5864,-5.5872,-5.5893,-5.5975,-5.5991,-5.6027,-5.5973,-5.6184,-5.6189,-5.6193,-5.6208,-5.6216,-5.6222,0,0,0,0,0,-5.5532,-5.5594,-5.5595,-5.5614,-5.5717,-5.5791,-5.5805,-5.5827,-5.5809,-5.584,-5.5872,-5.587,-5.6014,-5.5983,-5.6001,-5.6039,-5.6182,-5.6188,-5.6193,-5.6205,-5.6214,-5.6222,0,0,0,0,0,0,-5.5535,-5.5602,-5.5604,-5.5687,-5.5734,-5.5792,-5.5832,-5.5836,-5.5888,-5.5884,-5.591,-5.5923,-5.5999,-5.6027,-5.5992,-5.6121,-5.6096,-5.6105,-5.6099,-5.6108,-5.6114,-5.6105,-5.5978,0,0,0,0,0,-5.5546,-5.5601,-5.5656,-5.5724,-5.5748,-5.5786,-5.5819,-5.5833,-5.5882,-5.5901,-5.5938,-5.5985,-5.6041,-5.6076,-5.613,-5.6214,-5.6226,-5.6249,-5.6256,-5.6261,-5.6268,-5.6314,-5.6324,-5.6213,-5.6213,-5.6213,0,0,-5.5567,-5.5611,-5.5644,-5.5726,-5.5763,-5.5819,-5.5802,-5.5862,-5.5904,-5.591,-5.5984,-5.6014,-5.6068,-5.6148,-5.6185,-5.6174,-5.6302,-5.6268,-5.6272,-5.6276,-5.632,-5.6331,-5.634,-5.6216,-5.6216,-5.6215,0,0,-5.5635,-5.5674,-5.5735,-5.5773,-5.5831,-5.5857,-5.5872,-5.593,-5.595,-5.6026,-5.6031,-5.6082,-5.6177,-5.6215,-5.6247,-5.6332,-5.6332,-5.635,-5.6383,-5.6428,-5.6436,-5.6444,-5.6473,-5.6483,-5.6357,-5.6357,-5.6357,0,-5.5654,-5.5739,-5.5765,-5.5825,-5.5861,-5.5872,-5.5933,-5.5969,-5.6041,-5.6065,-5.6052,-5.6173,-5.621,-5.6299,-5.632,-5.6346,-5.6363,-5.6341,-5.6433,-5.6441,-5.6449,-5.6477,-5.6488,-5.6358,-5.6358,-5.6358,-5.6358,0,-5.5759,-5.5818,-5.5861,-5.5931,-5.5972,-5.6032,-5.6067,-5.6106,-5.6117,-5.6144,-5.6221,-5.6267,-5.633,-5.6353,-5.6365,-5.6445,-5.6436,-5.6428,-5.6402,-5.6461,-5.6487,-5.6498,-5.636,-5.636,-5.6359,-5.6359,0,0,-5.5828,-5.5914,-5.5929,-5.5961,-5.6027,-5.6073,-5.6135,-5.6198,-5.623,-5.628,-5.6332,-5.6414,-5.6407,-5.6444,-5.646,-5.6499,-5.6563,-5.6487,-5.6488,-5.6497,-5.6653,-5.6656,-5.6668,-5.6565,-5.6567,-5.6569,-5.6647,0,-5.5901,-5.6011,-5.6037,-5.6131,-5.6185,-5.6198,-5.6251,-5.6297,-5.6325,-5.6376,-5.6406,-5.6463,-5.6451,-5.6473,-5.6513,-5.6546,-5.6594,-5.6542,-5.6611,-5.6613,-5.6594,-5.6682,-5.6686,-5.6757,-5.6658,-5.666,-5.6661,0,-5.6,-5.6054,-5.6153,-5.6213,-5.6236,-5.6284,-5.6344,-5.6393,-5.6446,-5.6464,-5.6506,-5.6518,-5.6583,-5.6557,-5.6645,-5.6609,-5.664,-5.6661,-5.6665,-5.6669,-5.6638,-5.6687,-5.6781,-5.679,-5.6678,-5.6677,-5.6676,0,-5.6038,-5.6135,-5.6207,-5.6235,-5.6307,-5.634,-5.6371,-5.6422,-5.6459,-5.6512,-5.6536,-5.6596,-5.6628,-5.6674,-5.6703,-5.6682,-5.6789,-5.6765,-5.6804,-5.6803,-5.6823,-5.682,-5.692,-5.6848,-5.6847,-5.6847,-5.6847,0,-5.6115,-5.6175,-5.6225,-5.6269,-5.6336,-5.6367,-5.6433,-5.6465,-5.6511,-5.6561,-5.6576,-5.6622,-5.6659,-5.6711,-5.6734,-5.6803,-5.6818,-5.6833,-5.6838,-5.683,-5.6828,-5.6848,-5.6843,-5.685,-5.6849,-5.6849,-5.6848,0,-5.6167,-5.6203,-5.6282,-5.6345,-5.6362,-5.6409,-5.6462,-5.6505,-5.6535,-5.6598,-5.6615,-5.6661,-5.6723,-5.6757,-5.6834,-5.685,-5.6927,-5.693,-5.6908,-5.691,-5.6946,-5.6941,-5.706,-5.7076,-5.6995,-5.6995,-5.6996,0,-5.6212,-5.6258,-5.6327,-5.6362,-5.6394,-5.645,-5.6488,-5.6521,-5.656,-5.6625,-5.666,-5.6723,-5.6775,-5.6873,-5.6913,-5.6973,-5.6976,-5.7014,-5.6985,-5.6976,-5.6974,-5.697,-5.6974,-5.7018,-5.7018,-5.7019,-5.702,0,-5.6288,-5.6304,-5.6359,-5.642,-5.6465,-5.6515,-5.6564,-5.6592,-5.6633,-5.6676,-5.674,-5.678,-5.686,-5.6922,-5.6985,-5.7017,-5.7025,-5.7029,-5.7041,-5.7031,-5.7016,-5.7023,-5.6919,-5.7025,-5.7025,-5.7024,-5.7024,-5.7024,-5.6337,-5.6378,-5.6433,-5.6493,-5.6534,-5.658,-5.6624,-5.666,-5.6714,-5.6782,-5.6799,-5.6865,-5.6919,-5.7005,-5.7039,-5.7092,-5.7084,-5.7102,-5.7105,-5.7108,-5.7109,-5.7011,-5.7104,-5.7103,-5.7103,-5.7103,-5.7103,0,-5.6411,-5.6448,-5.6503,-5.6572,-5.662,-5.6626,-5.6681,-5.672,-5.6779,-5.6828,-5.688,-5.6953,-5.7014,-5.706,-5.7122,-5.7156,-5.7161,-5.7171,-5.7167,-5.7174,-5.7113,-5.7095,-5.7166,-5.7166,-5.7166,-5.7166,-5.7166,-5.7165,-5.6456,-5.6526,-5.655,-5.6641,-5.6677,-5.6743,-5.6774,-5.6817,-5.6857,-5.6938,-5.6989,-5.702,-5.7068,-5.7134,-5.719,-5.7202,-5.7224,-5.7233,-5.7245,-5.7185,-5.7179,-5.7172,-5.7156,-5.7238,-5.7238,-5.7302,-5.7302,-5.7303]},{"header":{"parameterUnit":"m.s-1","parameterCategory":1,"la1":30.2991,"la2":30.254,"lo1":-89.0895,"lo2":-89.0444,"dy":0.0017,"dx":0.0017,"nx":28,"ny":28,"refTime":"2025-04-04T09:00:00:Z","depth":0,"parameterNumber":3,"parameterNumberName":"V-component_of_WINDS"},"data":[0,0,0,0,0,0,0,0,0,0,0,0,0,0,0,0,0,0,0,0,0,0,0,0,0,0,0,0,0,0,0,0,0,0,0,0,0,0,0,0,0,0,0,0,0,0,0,0,0,0,0,0,0,0,0,0,0,0,4.4411,4.4412,0,4.4551,4.4553,4.4555,4.4571,4.457,4.4569,4.4567,4.471,4.4715,4.472,0,0,0,0,0,0,0,0,0,0,0,0,0,4.4157,4.4162,4.4411,4.4412,4.4414,4.4551,4.4553,4.4555,4.4572,4.457,4.4568,4.4567,4.4708,4.4714,4.472,0,0,0,0,0,0,0,0,0,0,0,0,0,4.4279,4.4163,4.441,4.4439,4.4443,4.4551,4.4553,4.4556,4.4572,4.457,4.4568,4.4566,4.4706,4.4713,4.4721,4.4809,0,0,4.4744,4.4747,0,0,0,0,0,0,0,0,4.4272,4.4289,4.4433,4.4437,4.4442,4.4542,4.4516,4.4641,4.4573,4.4523,4.4567,4.4565,4.4655,4.4667,4.4698,4.4816,4.4822,4.4745,4.4749,4.4753,4.4755,0,0,0,0,0,0,0,4.4264,4.4283,4.4466,4.4435,4.4441,4.4445,4.446,4.454,4.4599,4.4527,4.4529,4.4545,4.4657,4.469,4.4701,4.4824,4.4745,4.4751,4.4756,4.4759,4.5026,4.5028,0,0,0,0,0,0,4.425,4.4276,4.4462,4.4471,4.435,4.4451,4.4468,4.4512,4.4598,4.4609,4.4547,4.4545,4.4679,4.4692,4.4706,4.4818,4.4753,4.476,4.4764,4.5023,4.5026,4.5029,0,0,0,0,0,0,4.4245,4.4267,4.4456,4.4374,4.4398,4.4458,4.4507,4.4516,4.4549,4.4613,4.4624,4.457,4.4677,4.4696,4.4785,4.4823,4.4763,4.477,4.502,4.5024,4.5028,4.5041,0,0,0,0,0,0,4.4237,4.4265,4.4298,4.4374,4.4402,4.4532,4.4509,4.452,4.4562,4.4562,4.4637,4.4648,4.4677,4.4773,4.4792,4.4833,4.4776,4.5017,4.5022,4.5026,4.5037,4.5045,4.5051,0,0,0,0,0,4.4228,4.4295,4.43,4.4322,4.4446,4.4534,4.455,4.4583,4.4565,4.46,4.4642,4.4646,4.4816,4.4782,4.4804,4.4847,4.5015,4.5021,4.5026,4.5034,4.5043,4.5051,0,0,0,0,0,0,4.4221,4.4306,4.4312,4.4405,4.4463,4.4537,4.4581,4.4591,4.4653,4.465,4.4688,4.4705,4.4793,4.4829,4.479,4.4939,4.4914,4.4924,4.4913,4.4922,4.4928,4.4919,4.4782,0,0,0,0,0,4.4231,4.4295,4.4365,4.4441,4.447,4.4521,4.456,4.4581,4.4641,4.4665,4.4713,4.4772,4.4839,4.4882,4.4947,4.5043,4.5061,4.5083,4.509,4.5096,4.5104,4.5161,4.5173,4.5048,4.5048,4.5048,0,0,4.425,4.4305,4.4343,4.4441,4.4488,4.4555,4.4541,4.4611,4.4661,4.4676,4.4764,4.4801,4.4869,4.4963,4.5006,4.4995,4.5143,4.5103,4.5107,4.5113,4.5168,4.518,4.519,4.5052,4.5051,4.505,0,0,4.4321,4.4368,4.4438,4.4486,4.4557,4.4591,4.4608,4.4682,4.4708,4.4797,4.481,4.487,4.4984,4.5033,4.5073,4.5166,4.5172,4.5186,4.5222,4.5276,4.5286,4.5295,4.5331,4.5343,4.5194,4.5194,4.5194,0,4.4337,4.4438,4.4472,4.4544,4.4588,4.4605,4.4678,4.4722,4.4811,4.4841,4.4827,4.4973,4.502,4.5127,4.515,4.518,4.5202,4.5177,4.5282,4.5292,4.53,4.5335,4.5348,4.5195,4.5195,4.5195,4.5195,0,4.4455,4.4525,4.4573,4.4661,4.471,4.4781,4.4827,4.4873,4.489,4.4926,4.5018,4.5074,4.5153,4.5179,4.5196,4.529,4.5281,4.5274,4.525,4.5313,4.5346,4.536,4.5197,4.5197,4.5196,4.5196,0,0,4.4524,4.4632,4.4649,4.4691,4.4772,4.4828,4.49,4.4978,4.5018,4.5079,4.5142,4.524,4.5236,4.5281,4.5303,4.535,4.5424,4.5339,4.5341,4.5354,4.5535,4.5541,4.5555,4.5429,4.5431,4.5434,4.553,0,4.4607,4.4738,4.4772,4.4884,4.4951,4.497,4.5033,4.5091,4.5127,4.5189,4.5228,4.5298,4.5285,4.5313,4.5361,4.5405,4.5461,4.5398,4.5489,4.5492,4.5474,4.5572,4.5578,4.5666,4.5543,4.5545,4.5547,0,4.4719,4.4785,4.4904,4.498,4.501,4.5066,4.5143,4.5201,4.5268,4.5291,4.5343,4.5361,4.5439,4.541,4.5519,4.5476,4.5515,4.5543,4.5547,4.5558,4.5524,4.5588,4.5695,4.5709,4.5567,4.5565,4.5564,0,4.4762,4.4879,4.4967,4.5001,4.5091,4.5132,4.5171,4.5235,4.5281,4.5347,4.5378,4.5452,4.5493,4.555,4.5588,4.5563,4.5695,4.5669,4.5718,4.5717,4.5746,4.5744,4.5863,4.5768,4.5768,4.5767,4.5767,0,4.4851,4.4923,4.4988,4.5041,4.5124,4.5163,4.5244,4.5284,4.5342,4.5404,4.5424,4.5483,4.5529,4.5595,4.5625,4.5713,4.573,4.5752,4.576,4.5751,4.5749,4.5779,4.5774,4.5771,4.577,4.577,4.5769,0,4.4912,4.4957,4.5054,4.5133,4.5154,4.5212,4.528,4.5333,4.537,4.545,4.5471,4.5529,4.5607,4.5652,4.5749,4.577,4.5868,4.5871,4.5846,4.585,4.5898,4.5894,4.6041,4.6064,4.5952,4.5953,4.5954,0,4.4967,4.5023,4.5109,4.5153,4.5194,4.5264,4.5311,4.5353,4.5401,4.5483,4.5528,4.5607,4.5673,4.5797,4.5849,4.5924,4.5931,4.5978,4.5942,4.5934,4.5935,4.5932,4.5939,4.5984,4.5985,4.5986,4.5987,0,4.506,4.5081,4.5149,4.5226,4.5283,4.5345,4.5407,4.5442,4.5493,4.5547,4.5629,4.568,4.5781,4.5861,4.5941,4.5982,4.5994,4.5997,4.6013,4.6006,4.5991,4.6003,4.5865,4.5994,4.5993,4.5993,4.5992,4.5992,4.5122,4.5174,4.5244,4.532,4.5371,4.5429,4.5485,4.553,4.5598,4.5685,4.5705,4.5791,4.5858,4.5968,4.6011,4.608,4.6071,4.6093,4.6099,4.6105,4.6108,4.5978,4.6094,4.6094,4.6094,4.6093,4.6093,0,4.5219,4.5265,4.5334,4.5422,4.5482,4.5488,4.5558,4.5608,4.5684,4.5746,4.5812,4.5906,4.5984,4.6043,4.6123,4.6167,4.6174,4.6186,4.6185,4.6195,4.611,4.6089,4.6179,4.6179,4.6179,4.6179,4.6179,4.6179,4.5276,4.5367,4.5396,4.5513,4.5559,4.5644,4.5684,4.5738,4.5788,4.5893,4.5959,4.5997,4.6058,4.6144,4.6216,4.6231,4.6261,4.6273,4.6289,4.6209,4.62,4.6191,4.6172,4.6278,4.6278,4.6369,4.637,4.637]}]]